Regional Weather Roundup
Issued by NWS

Home | Current Version | Previous Version | Graphics & Text | Print | Product List | Glossary On
Versions: 1 2 3 4 5 6 7 8 9 10 11 12 13 14 15 16 17 18 19 20 21 22 23 24 25 26 27 28 29 30 31 32 33 34 35 36 37 38 39 40 41 42 43 44 45 46 47 48 49 50
000
ASUS43 KLSX 201910
RWRMO

WEATHER SUMMARY FOR MISSOURI
NATIONAL WEATHER SERVICE SPRINGFIELD MO
200 PM CDT FRI APR 20 2018

NOTE: "FAIR" INDICATES FEW OR NO CLOUDS BELOW 12,000 FEET WITH NO
       SIGNIFICANT WEATHER AND/OR OBSTRUCTIONS TO VISIBILITY.
       CURRENT SKY AND/OR WEATHER CONDITIONS ARE NOT AVAILABLE FOR
       CHILLICOTHE AND FARMINGTON.

MOZ001>031-035>038-043-044-053-054-202000-
...NORTHERN AND WESTERN MISSOURI...

CITY           SKY/WX    TMP DP  RH WIND       PRES   REMARKS
KANSAS CTY INT CLOUDY    60  30  32 E10       30.36F
KANSAS C DTWN  PTSUNNY   62  29  28 E13G21    30.35F
LEE`S SUMMIT   MOSUNNY   60  29  30 SE13G18   30.36F
ST JOSEPH      CLOUDY    60  29  30 SE13G22   30.37F
CHILLICOTHE      N/A     59  27  29 SE10G18   30.41F
KIRKSVILLE     CLOUDY    58  28  32 SE10      30.43F

$$
MOZ066>068-077>081-088>096-101>105-202000-
...SOUTHWEST MISSOURI...

CITY           SKY/WX    TMP DP  RH WIND       PRES   REMARKS
SPRINGFIELD    SUNNY     61  28  28 E13       30.33F
JOPLIN         MOSUNNY   61  29  29 SE13G21   30.31F
BRANSON        MOSUNNY   59  32  36 SE10      30.35F

$$
MOZ032>034-039>042-045>050-055>058-069>072-202000-
...CENTRAL MISSOURI...

CITY           SKY/WX    TMP DP  RH WIND       PRES   REMARKS
COLUMBIA       CLOUDY    61  21  21 E12       30.39F
JEFFERSON CITY CLOUDY    61  20  20 SE14      30.38F
ROLLA          MOSUNNY   60  18  19 E12       30.39F
SEDALIA        CLOUDY    60  29  30 SE9       30.40F
WHITEMAN AFB   PTSUNNY   60  28  29 SE13      30.34F
WARRENSBURG    CLOUDY    61  27  27 E10G17    30.37F
OSAGE BEACH    CLOUDY    61  25  25 E8G20     30.38

$$
MOZ051-052-059>065-202000-
...EAST CENTRAL MISSOURI...

CITY           SKY/WX    TMP DP  RH WIND       PRES   REMARKS
ST LOUIS INTL  MOSUNNY   60  20  21 SE13      30.45F
SPIRIT OF STL  MOSUNNY   62  21  20 SE12G20   30.42F
ST CHARLES     SUNNY     61  23  23 E10G21    30.44F

$$
MOZ072>076-082>087-097>100-106>115-202000-
...SOUTH CENTRAL AND SOUTHEAST MISSOURI...

CITY           SKY/WX    TMP DP  RH WIND       PRES   REMARKS
CAPE GIRARDEAU FAIR      63  30  28 E10       30.40F
FARMINGTON     SUNNY     61  22  22 E9        30.42F
POPLAR BLUFF   FAIR      61  25  25 E12G18    30.40F
WEST PLAINS    SUNNY     62  18  18 MISG      30.37F

$$



USA.gov is the U.S. government's official web portal to all federal, state and local government web resources and services.